Weather History for Bentonville, AR

Change the Weather History Date:

Sunday, May 11, 2014

  Actual Average Record
Temperature  
Mean Temperature 76 °F -  
Max Temperature 84 °F 75 °F 89 °F (1963)
Min Temperature 69 °F 50 °F 34 °F (1969)
Cooling Degree Days 12    
Growing Degree Days 26 (Base 50)    
Moisture  
Dew Point 64 °F    
Average Humidity 68    
Maximum Humidity 83    
Minimum Humidity 51    
Precipitation  
Precipitation 0.00 in - - ()
Sea Level Pressure  
Sea Level Pressure 29.85 in    
Wind  
Wind Speed 12 mph (South)    
Max Wind Speed 20 mph    
Max Gust Speed 29 mph    
Visibility 10 miles    
Events      
Averages and records for this station are not official NWS values.
T = Trace of Precipitation, MM = Missing Value Source: NWS Daily Summary

Daily Weather History Graph

Daily Weather History Graph

Search for Another Location

Airport:

Trip Planner

Search our weather history database for the weather conditions in past years. The results will help you decide how hot, cold, wet, or windy it might be!

Date:

Astronomy

May. 11, 2014 Rise Set
Actual Time 6:13 AM CDT 8:13 PM CDT
Civil Twilight 5:45 AM CDT 8:41 PM CDT
Nautical Twilight 5:10 AM CDT 9:16 PM CDT
Astronomical Twilight 4:33 AM CDT 9:53 PM CDT
Moon 5:15 PM CDT (5/11) 4:13 AM CDT (5/11)
Length of Visible Light 14h 56m
Length of Day
13h 59m
Waxing Gibbous, 89% of the Moon is Illuminated
May 11
Waxing Gibbous
May 14
Full
May 21
Last Quarter
May 28
New
Jun 5
First Quarter

Hourly Weather History & Observations

Time (CDT) Temp. Heat Index Dew Point Humidity Pressure Visibility Wind Dir Wind Speed Gust Speed Precip Events Conditions
12:15 AM 71.6 °F - 62.6 °F 73% 29.88 in 10.0 mi South 8.1 mph - N/A   Clear
12:35 AM 69.8 °F - 62.6 °F 78% 29.88 in 10.0 mi South 8.1 mph - N/A   Clear
12:55 AM 69.8 °F - 62.6 °F 78% 29.88 in 10.0 mi South 9.2 mph - N/A   Clear
1:15 AM 71.6 °F - 64.4 °F 78% 29.87 in 10.0 mi South 10.4 mph - N/A   Clear
1:35 AM 71.6 °F - 64.4 °F 78% 29.87 in 10.0 mi South 12.7 mph 19.6 mph N/A   Clear
1:55 AM 71.6 °F - 64.4 °F 78% 29.86 in 10.0 mi South 9.2 mph - N/A   Clear
2:15 AM 71.6 °F - 64.4 °F 78% 29.86 in 10.0 mi South 11.5 mph 19.6 mph N/A   Clear
2:35 AM 71.6 °F - 64.4 °F 78% 29.85 in 10.0 mi South 10.4 mph 16.1 mph N/A   Clear
2:55 AM 71.6 °F - 64.4 °F 78% 29.85 in 10.0 mi South 10.4 mph 20.7 mph N/A   Clear
3:15 AM 71.6 °F - 64.4 °F 78% 29.85 in 10.0 mi South 9.2 mph - N/A   Clear
3:35 AM 69.8 °F - 64.4 °F 83% 29.85 in 10.0 mi South 10.4 mph 16.1 mph N/A   Clear
3:55 AM 69.8 °F - 64.4 °F 83% 29.85 in 10.0 mi South 10.4 mph - N/A   Clear
4:15 AM 69.8 °F - 64.4 °F 83% 29.85 in 10.0 mi South 11.5 mph 16.1 mph N/A   Clear
4:35 AM 69.8 °F - 64.4 °F 83% 29.85 in 10.0 mi South 11.5 mph 16.1 mph N/A   Clear
4:55 AM 69.8 °F - 64.4 °F 83% 29.85 in 10.0 mi South 10.4 mph 17.3 mph N/A   Clear
5:15 AM 69.8 °F - 64.4 °F 83% 29.85 in 10.0 mi South 10.4 mph - N/A   Clear
5:35 AM 69.8 °F - 64.4 °F 83% 29.84 in 10.0 mi South 9.2 mph - N/A   Clear
5:55 AM 69.8 °F - 64.4 °F 83% 29.84 in 10.0 mi South 8.1 mph - N/A   Clear
6:15 AM 69.8 °F - 64.4 °F 83% 29.85 in 10.0 mi South 9.2 mph 17.3 mph N/A   Clear
6:35 AM 69.8 °F - 64.4 °F 83% 29.85 in 10.0 mi South 9.2 mph - N/A   Clear
6:55 AM 71.6 °F - 64.4 °F 78% 29.85 in 10.0 mi South 10.4 mph 16.1 mph N/A   Clear
7:15 AM 71.6 °F - 64.4 °F 78% 29.85 in 10.0 mi South 10.4 mph 16.1 mph N/A   Clear
7:35 AM 71.6 °F - 64.4 °F 78% 29.86 in 10.0 mi South 11.5 mph 17.3 mph N/A   Clear
7:55 AM 73.4 °F - 64.4 °F 73% 29.87 in 10.0 mi South 13.8 mph 18.4 mph N/A   Clear
8:15 AM 73.4 °F - 64.4 °F 73% 29.87 in 10.0 mi South 12.7 mph 21.9 mph N/A   Partly Cloudy
8:35 AM 75.2 °F - 64.4 °F 69% 29.88 in 10.0 mi South 16.1 mph 21.9 mph N/A   Scattered Clouds
8:55 AM 73.4 °F - 64.4 °F 73% 29.89 in 10.0 mi South 13.8 mph 20.7 mph N/A   Mostly Cloudy
9:15 AM 73.4 °F - 62.6 °F 69% 29.89 in 10.0 mi South 13.8 mph 21.9 mph N/A   Overcast
9:35 AM 75.2 °F - 62.6 °F 65% 29.89 in 10.0 mi SSW 12.7 mph 18.4 mph N/A   Overcast
9:55 AM 75.2 °F - 64.4 °F 69% 29.90 in 10.0 mi SSW 15.0 mph 19.6 mph N/A   Overcast
10:15 AM 75.2 °F - 64.4 °F 69% 29.90 in 10.0 mi South 15.0 mph 21.9 mph N/A   Overcast
10:35 AM 75.2 °F - 64.4 °F 69% 29.90 in 10.0 mi SSW 15.0 mph 21.9 mph N/A   Overcast
10:55 AM 75.2 °F - 64.4 °F 69% 29.90 in 10.0 mi South 15.0 mph 23.0 mph N/A   Overcast
11:15 AM 75.2 °F - 64.4 °F 69% 29.90 in 10.0 mi South 10.4 mph - N/A   Overcast
11:35 AM 77.0 °F - 64.4 °F 65% 29.90 in 10.0 mi South 12.7 mph 19.6 mph N/A   Overcast
11:55 AM 78.8 °F - 64.4 °F 61% 29.90 in 10.0 mi South 13.8 mph 21.9 mph N/A   Mostly Cloudy
12:15 PM 78.8 °F - 64.4 °F 61% 29.90 in 10.0 mi South 16.1 mph 24.2 mph N/A   Mostly Cloudy
12:35 PM 78.8 °F - 64.4 °F 61% 29.89 in 10.0 mi SSW 11.5 mph 19.6 mph N/A   Overcast
12:55 PM 78.8 °F - 64.4 °F 61% 29.89 in 10.0 mi South 13.8 mph 21.9 mph N/A   Overcast
1:15 PM 80.6 °F 82.3 °F 64.4 °F 58% 29.88 in 10.0 mi SSW 11.5 mph 27.6 mph N/A   Mostly Cloudy
1:35 PM 80.6 °F 82.7 °F 66.2 °F 61% 29.88 in 10.0 mi SSW 17.3 mph 21.9 mph N/A   Mostly Cloudy
1:55 PM 80.6 °F 82.7 °F 66.2 °F 61% 29.87 in 10.0 mi SSW 15.0 mph 21.9 mph N/A   Mostly Cloudy
2:15 PM 80.6 °F 82.3 °F 64.4 °F 58% 29.86 in 10.0 mi South 11.5 mph 23.0 mph N/A   Mostly Cloudy
2:35 PM 82.4 °F 83.9 °F 64.4 °F 54% 29.86 in 10.0 mi SSW 16.1 mph 23.0 mph N/A   Mostly Cloudy
2:55 PM 82.4 °F 83.9 °F 64.4 °F 54% 29.85 in 10.0 mi SSW 15.0 mph 25.3 mph N/A   Scattered Clouds
3:15 PM 82.4 °F 83.9 °F 64.4 °F 54% 29.85 in 10.0 mi South 13.8 mph 27.6 mph N/A   Partly Cloudy
3:35 PM 82.4 °F 83.9 °F 64.4 °F 54% 29.84 in 10.0 mi South 12.7 mph 24.2 mph N/A   Scattered Clouds
3:55 PM 84.2 °F 86.6 °F 66.2 °F 55% 29.83 in 10.0 mi South 19.6 mph 25.3 mph N/A   Scattered Clouds
4:15 PM 82.4 °F 83.9 °F 64.4 °F 54% 29.82 in 10.0 mi South 17.3 mph 25.3 mph N/A   Mostly Cloudy
4:35 PM 82.4 °F 83.9 °F 64.4 °F 54% 29.82 in 10.0 mi South 15.0 mph 25.3 mph N/A   Scattered Clouds
4:55 PM 82.4 °F 83.9 °F 64.4 °F 54% 29.82 in 10.0 mi SSW 19.6 mph 27.6 mph N/A   Clear
5:15 PM 80.6 °F 81.8 °F 62.6 °F 54% 29.82 in 10.0 mi South 15.0 mph 28.8 mph N/A   Partly Cloudy
5:35 PM 82.4 °F 83.9 °F 64.4 °F 54% 29.80 in 10.0 mi SSW 16.1 mph 24.2 mph N/A   Partly Cloudy
5:55 PM 82.4 °F 83.4 °F 62.6 °F 51% 29.80 in 10.0 mi SSW 13.8 mph 23.0 mph N/A   Partly Cloudy
6:15 PM 82.4 °F 83.9 °F 64.4 °F 54% 29.80 in 10.0 mi SSW 17.3 mph - N/A   Partly Cloudy
6:35 PM 80.6 °F 82.3 °F 64.4 °F 58% 29.79 in 10.0 mi South 16.1 mph 25.3 mph N/A   Partly Cloudy
6:55 PM 80.6 °F 82.3 °F 64.4 °F 58% 29.78 in 10.0 mi South 9.2 mph 23.0 mph N/A   Clear
7:15 PM 80.6 °F 82.3 °F 64.4 °F 58% 29.77 in 10.0 mi South 13.8 mph 20.7 mph N/A   Clear
7:35 PM 78.8 °F - 64.4 °F 61% 29.78 in 10.0 mi South 10.4 mph - N/A   Scattered Clouds
7:55 PM 78.8 °F - 64.4 °F 61% 29.79 in 10.0 mi South 11.5 mph 16.1 mph N/A   Scattered Clouds
8:15 PM 77.0 °F - 64.4 °F 65% 29.80 in 10.0 mi South 11.5 mph - N/A   Partly Cloudy
8:35 PM 77.0 °F - 64.4 °F 65% 29.80 in 10.0 mi South 9.2 mph - N/A   Mostly Cloudy
8:55 PM 75.2 °F - 64.4 °F 69% 29.80 in 10.0 mi SSE 8.1 mph - N/A   Scattered Clouds
9:15 PM 75.2 °F - 64.4 °F 69% 29.80 in 10.0 mi SSE 9.2 mph - N/A   Clear
9:35 PM 75.2 °F - 64.4 °F 69% 29.80 in 10.0 mi South 12.7 mph 17.3 mph N/A   Clear
9:55 PM 75.2 °F - 64.4 °F 69% 29.81 in 10.0 mi SSE 10.4 mph - N/A   Partly Cloudy
10:15 PM 75.2 °F - 64.4 °F 69% 29.81 in 10.0 mi SSE 16.1 mph 20.7 mph N/A   Partly Cloudy
10:35 PM 75.2 °F - 64.4 °F 69% 29.82 in 10.0 mi South 15.0 mph 23.0 mph N/A   Partly Cloudy
10:55 PM 75.2 °F - 64.4 °F 69% 29.81 in 10.0 mi South 13.8 mph 21.9 mph N/A   Clear
11:15 PM 75.2 °F - 64.4 °F 69% 29.81 in 10.0 mi South 13.8 mph 18.4 mph N/A   Clear
11:35 PM 75.2 °F - 64.4 °F 69% 29.82 in 10.0 mi South 18.4 mph 28.8 mph N/A   Partly Cloudy
11:55 PM 75.2 °F - 64.4 °F 69% 29.82 in 10.0 mi South 11.5 mph 24.2 mph N/A   Partly Cloudy